Regional Weather Roundup
Issued by NWS Midland/Odessa, TX

Home | Current Version | Previous Version | Text Only | Print | Product List | Glossary On
Versions: 1 2 3 4 5 6 7 8 9 10 11 12 13 14 15 16 17 18 19 20 21 22 23 24 25 26 27 28 29 30 31 32 33 34 35 36 37 38 39 40 41 42 43 44 45 46 47 48 49 50
000
ASUS44 KMAF 030510
RWRMAF
MIDLAND AREA WEATHER ROUNDUP
NATIONAL WEATHER SERVICE MIDLAND TX
1200 AM CDT MON AUG 03 2015

...IN SOUTHWEST TEXAS AND SOUTHEAST NEW MEXICO...

CITY           SKY/WX    TMP DP  RH WIND       PRES   REMARKS
ALPINE         PTCLDY    78  55  45 SE9       30.12R
ANDREWS        MOCLDY    71  68  90 SE12G17   30.02R
ARTESIA        MOCLDY    82  61  47 SE14      29.99R
BIG SPRING     MOCLDY    78  64  62 SE8       29.97R
CARLSBAD       MOCLDY    85  59  41 E8        29.97R
DRYDEN           N/A     87  59  38 S12       29.93R
FORT STOCKTON  PTCLDY    84  57  39 SE16      29.97R
GUAD PASS      CLOUDY    79  54  41 W3        30.15R
HOBBS            N/A    N/A N/A N/A MISG        N/A
MARFA          PTCLDY    70  59  68 CALM      30.10S
MIDLAND AIRPK  CLOUDY    84  62  46 NW7       30.00R
MIDLAND INTL   CLOUDY    84  61  45 N3        29.99R
ODESSA         MOCLDY    83  59  44 N3        30.00S
PECOS          PTCLDY    85  56  37 SE10      29.93R
PRESIDIO       FAIR      91  55  29 MISG      29.91R
SEMINOLE       CLOUDY    76  63  64 SE12      30.02R
SNYDER         MOCLDY    84  61  45 SE10      29.95S
WINK           MOCLDY    80  65  59 SE12      29.94S
$$
...OTHER STATIONS IN TEXAS...

CITY           SKY/WX    TMP DP  RH WIND       PRES   REMARKS
ABILENE        PTCLDY    81  62  52 SE10      29.92F
AMARILLO       TSTM      73  67  81 S7        30.06R
AUSTIN         CLEAR     81  67  62 S13       29.89R
BROWNSVILLE    CLEAR     79  75  87 SE6       29.88S
CORPUS CHRISTI PTCLDY    79  73  82 S6        29.87S
DALLAS FTW     PTCLDY    83  57  41 SE6       29.88S
DEL RIO        CLEAR     86  59  39 SE9       29.86S
EL PASO        TSTM      73  66  78 NE12      30.06R
HOUSTON INT    CLEAR     82  69  64 S5        29.87F
LUBBOCK        MOCLDY    78  62  57 SW9       29.99R
SAN ANGELO     CLEAR     84  59  42 S8        29.92S
SAN ANTONIO    CLEAR     85  64  49 S8        29.91R
WACO           CLEAR     79  61  53 CALM      29.88S
WICHITA FALLS  NOT AVBL
$$
...OTHER LOCATIONS IN NEW MEXICO...

CITY           SKY/WX    TMP DP  RH WIND       PRES   REMARKS
ALAMAGORDO     PTCLDY    75  57  53 SE12      30.06R
ALBUQUERQUE    CLOUDY    73  55  53 CALM      30.15R
CANNON AFB     CLOUDY    71  64  77 N14       30.07R
CLOVIS         CLOUDY    73  61  64 NW16      30.09R
HOLLOMAN AFB   PTCLDY    80  55  41 SE9       30.03R
ROSWELL        PTCLDY    81  56  42 NE8       29.99R
RUIDOSO          N/A    N/A N/A N/A MISG        N/A
SANTA FE       MOCLDY    65  55  70 N14       30.21R
TRUTH OR CONSE MOCLDY    74  59  59 W8        30.08R
TUCUMCARI      LGT RAIN  69  65  86 CALM      30.05S
$$



USA.gov is the U.S. government's official web portal to all federal, state and local government web resources and services.